フルス彗星

P/2021 N2 ( Fuls )

English version
Home page
Updated on September 18, 2021

---------------------------------------------------------------------

・ プロフィール

発見日 2021年7月9日
発見光度 18.3等
発見者 David Carson Fuls (Catalina Sky Survey)

・ 写真集

・ 軌道要素

Epoch 2021 Nov. 2.0 TT = JDT 2459520.5
T 2021 Nov. 12.71447 TT                                 Rudenko
q   3.7972939            (2000.0)            P               Q
n   0.05390992     Peri.  177.24836     +0.77638184     -0.61203702
a   6.9399596      Node   221.74592     +0.57385361     +0.78517693
e   0.4528363      Incl.   13.06126     +0.26062092     +0.09438155
P  18.3
From 154 observations 2021 June 27-Sept. 1, mean residual 0".7.

・ 光度変化

        m1 = 9.0 + 5 logΔ + 10.0 log r

---------------------------------------------------------------------

軌道要素はM.P.E.C. 2021-R75に掲載されたものです。
光度グラフはComet for Windowsで作成したものです。

---------------------------------------------------------------------

Copyright(C) Seiichi Yoshida (comet@aerith.net). All rights reserved.